Hourly Data Report for June 27, 2004

TORONTO CITY
ONTARIO

43°40'00.000" N
79°24'00.000" W
112.50 m
6158355
71508
XTO

Download Data

Hourly Data (June 2004)
Hourly Data Report for June 27, 2004
TIME
LST
Temp Definition
°C
Dew Point Definition
°C
Rel Hum Definition
%
Precip. Amount Definition
mm

Wind Dir Definition
10's deg

Wind Spd Definition
km/h
Visibility Definition
km
Stn Press Definition
kPa
Hmdx Definition


Wind Chill Definition


Weather Definition


00:00 15.2 6.9 58   LegendMM LegendMM LegendMM 100.22     LegendNANA
01:00 14.5 8.2 66   LegendMM LegendMM LegendMM 100.17     LegendNANA
02:00 15.0 8.8 66   LegendMM LegendMM LegendMM 100.20     LegendNANA
03:00 14.1 8.4 69   LegendMM LegendMM LegendMM 100.19     LegendNANA
04:00 13.3 8.5 73   LegendMM LegendMM LegendMM 100.25     LegendNANA
05:00 12.7 8.7 77   LegendMM LegendMM LegendMM 100.30     LegendNANA
06:00 13.2 9.3 77   LegendMM LegendMM LegendMM 100.34     LegendNANA
07:00 15.8 9.6 67   LegendMM LegendMM LegendMM 100.37     LegendNANA
08:00 17.7 9.3 58   LegendMM LegendMM LegendMM 100.39     LegendNANA
09:00 19.1 9.9 55   LegendMM LegendMM LegendMM 100.39     LegendNANA
10:00 19.8 10.0 53   LegendMM LegendMM LegendMM 100.34     LegendNANA
11:00 20.6 11.4 56   LegendMM LegendMM LegendMM 100.29     LegendNANA
12:00 21.5 8.2 42   LegendMM LegendMM LegendMM 100.24     LegendNANA
13:00 21.4 11.5 53   LegendMM LegendMM LegendMM 100.23     LegendNANA
14:00 21.6 8.9 44   LegendMM LegendMM LegendMM 100.26     LegendNANA
15:00 21.6 7.0 39   LegendMM LegendMM LegendMM 100.29     LegendNANA
16:00 22.0 6.8 37   LegendMM LegendMM LegendMM 100.30     LegendNANA
17:00 21.6 7.0 39   LegendMM LegendMM LegendMM 100.28     LegendNANA
18:00 21.2 6.2 38   LegendMM LegendMM LegendMM 100.30     LegendNANA
19:00 20.8 7.0 41   LegendMM LegendMM LegendMM 100.34     LegendNANA
20:00 19.8 7.4 45   LegendMM LegendMM LegendMM 100.35     LegendNANA
21:00 18.0 8.0 52   LegendMM LegendMM LegendMM 100.42     LegendNANA
22:00 17.2 8.3 56   LegendMM LegendMM LegendMM 100.41     LegendNANA
23:00 16.5 8.8 60   LegendMM LegendMM LegendMM 100.40     LegendNANA

Notes on Data Quality.

Legend

  • E = Estimated
  • M = Missing
  • NA = Not Available*
  • [empty] = Indicates an unobserved value
Date modified: